QPF
0.08 0.08 0.09 0.10 0.07 0.08 0.08 0.08 0.10 0.12 0.11 0.13 0.13 0.11 0.10 0.09 0.09 0.09 0.08 0.10 0.12 0.12 0.12 0.13 0.15 0.17 0.14 0.10 0.08 0.08 0.09 0.07 0.08 0.07 0.06 0.04 0.04 0.04 0.05 0.07 0.11 0.10 0.07
0.05 0.05 0.06 0.06 0.08 0.14 0.12 0.09 0.10 0.11 0.12 0.13 0.11 0.12 0.12 0.11 0.11 0.11 0.11 0.12 0.12 0.12 0.12 0.11 0.14 0.15 0.16 0.14 0.10 0.09 0.08 0.07 0.09 0.07 0.04 0.04 0.04 0.05 0.05 0.05 0.10 0.15 0.10
0.02 0.03 0.04 0.06 0.12 0.21 0.17 0.12 0.12 0.14 0.13 0.13 0.13 0.13 0.12 0.13 0.15 0.14 0.13 0.12 0.12 0.14 0.12 0.10 0.12 0.15 0.18 0.15 0.10 0.09 0.08 0.08 0.09 0.09 0.06 0.04 0.04 0.03 0.04 0.04 0.08 0.19 0.14
0.01 0.02 0.03 0.03 0.08 0.15 0.20 0.21 0.18 0.17 0.17 0.15 0.16 0.16 0.14 0.14 0.15 0.15 0.14 0.12 0.12 0.11 0.10 0.12 0.14 0.16 0.20 0.13 0.10 0.09 0.09 0.08 0.09 0.09 0.07 0.05 0.04 0.04 0.03 0.04 0.07 0.16 0.20
0.01 0.02 0.03 0.04 0.06 0.11 0.16 0.19 0.17 0.16 0.15 0.12 0.15 0.16 0.14 0.13 0.14 0.14 0.14 0.12 0.09 0.09 0.08 0.09 0.11 0.13 0.14 0.13 0.11 0.11 0.10 0.06 0.07 0.08 0.04 0.05 0.07 0.05 0.04 0.06 0.10 0.15 0.22
0.02 0.02 0.02 0.04 0.06 0.09 0.11 0.14 0.15 0.14 0.13 0.12 0.14 0.15 0.16 0.15 0.15 0.15 0.14 0.11 0.08 0.08 0.08 0.09 0.10 0.10 0.10 0.11 0.14 0.13 0.10 0.07 0.07 0.05 0.04 0.08 0.10 0.07 0.08 0.12 0.14 0.18 0.23
0.03 0.04 0.03 0.04 0.06 0.06 0.07 0.09 0.11 0.10 0.09 0.10 0.12 0.11 0.13 0.15 0.13 0.13 0.14 0.12 0.09 0.07 0.06 0.09 0.12 0.12 0.10 0.10 0.12 0.11 0.10 0.08 0.06 0.04 0.05 0.09 0.14 0.10 0.12 0.14 0.13 0.19 0.20
0.02 0.04 0.04 0.04 0.05 0.06 0.07 0.10 0.09 0.09 0.09 0.10 0.12 0.11 0.10 0.11 0.12 0.12 0.11 0.09 0.08 0.07 0.08 0.12 0.13 0.12 0.11 0.09 0.09 0.09 0.08 0.06 0.06 0.07 0.07 0.09 0.08 0.06 0.07 0.09 0.11 0.13 0.13
0.02 0.04 0.07 0.07 0.05 0.05 0.05 0.06 0.06 0.07 0.09 0.11 0.13 0.11 0.11 0.10 0.11 0.11 0.08 0.07 0.08 0.08 0.11 0.14 0.13 0.11 0.10 0.11 0.10 0.08 0.07 0.08 0.08 0.07 0.07 0.08 0.05 0.05 0.05 0.06 0.07 0.09 0.10
0.03 0.04 0.06 0.06 0.06 0.05 0.04 0.05 0.05 0.06 0.09 0.12 0.14 0.11 0.11 0.12 0.10 0.07 0.06 0.05 0.05 0.04 0.07 0.10 0.12 0.13 0.11 0.10 0.09 0.09 0.09 0.09 0.08 0.07 0.07 0.08 0.05 0.04 0.05 0.05 0.05 0.07 0.07
0.03 0.02 0.02 0.03 0.02 0.03 0.03 0.05 0.06 0.08 0.10 0.15 0.17 0.16 0.19 0.15 0.09 0.09 0.06 0.04 0.03 0.03 0.04 0.06 0.08 0.10 0.09 0.07 0.07 0.11 0.10 0.09 0.09 0.08 0.07 0.09 0.06 0.04 0.05 0.05 0.05 0.06 0.06
0.03 0.02 0.02 0.02 0.02 0.02 0.02 0.04 0.06 0.07 0.08 0.19 0.30 0.24 0.18 0.12 0.09 0.05 0.04 0.03 0.03 0.03 0.03 0.04 0.05 0.06 0.07 0.06 0.06 0.11 0.15 0.15 0.11 0.09 0.06 0.07 0.07 0.04 0.05 0.06 0.04 0.05 0.07
0.03 0.02 0.03 0.03 0.02 0.02 0.03 0.03 0.05 0.05 0.08 0.16 0.25 0.21 0.16 0.10 0.07 0.05 0.05 0.06 0.04 0.03 0.04 0.04 0.05 0.06 0.07 0.08 0.07 0.08 0.13 0.17 0.15 0.13 0.10 0.08 0.06 0.05 0.06 0.06 0.05 0.06 0.08
0.03 0.03 0.03 0.03 0.04 0.04 0.03 0.04 0.03 0.02 0.04 0.06 0.10 0.10 0.08 0.08 0.07 0.06 0.07 0.07 0.06 0.05 0.05 0.04 0.05 0.05 0.05 0.07 0.06 0.06 0.07 0.11 0.11 0.12 0.10 0.07 0.06 0.05 0.06 0.06 0.05 0.08 0.09
0.03 0.02 0.03 0.03 0.05 0.04 0.05 0.06 0.02 0.01 0.03 0.03 0.03 0.03 0.04 0.06 0.06 0.06 0.06 0.07 0.06 0.05 0.03 0.03 0.04 0.04 0.05 0.05 0.04 0.03 0.04 0.05 0.04 0.07 0.09 0.09 0.08 0.07 0.07 0.08 0.07 0.09 0.10
0.03 0.02 0.02 0.02 0.02 0.03 0.04 0.04 0.02 0.01 0.01 0.01 0.02 0.01 0.03 0.05 0.07 0.07 0.06 0.06 0.05 0.04 0.04 0.03 0.03 0.05 0.05 0.05 0.04 0.02 0.03 0.04 0.06 0.09 0.10 0.12 0.11 0.09 0.09 0.10 0.10 0.10 0.09
0.03 0.02 0.01 0.01 0.01 0.02 0.03 0.02 0.01 0.00 0.01 0.01 0.02 0.02 0.03 0.03 0.04 0.06 0.06 0.05 0.05 0.05 0.05 0.04 0.04 0.04 0.04 0.04 0.04 0.03 0.04 0.06 0.09 0.11 0.12 0.14 0.10 0.08 0.08 0.08 0.10 0.11 0.10
0.02 0.02 0.01 0.00 0.01 0.02 0.04 0.05 0.03 0.02 0.03 0.03 0.04 0.04 0.03 0.03 0.03 0.05 0.06 0.05 0.06 0.05 0.05 0.05 0.04 0.04 0.05 0.04 0.05 0.05 0.05 0.05 0.08 0.12 0.16 0.17 0.13 0.12 0.10 0.08 0.08 0.09 0.11
0.01 0.02 0.01 0.02 0.02 0.02 0.04 0.06 0.04 0.04 0.05 0.04 0.05 0.06 0.06 0.05 0.05 0.05 0.05 0.06 0.06 0.05 0.05 0.05 0.05 0.04 0.05 0.06 0.04 0.04 0.04 0.06 0.09 0.12 0.15 0.16 0.16 0.13 0.11 0.09 0.07 0.07 0.09
0.01 0.03 0.02 0.02 0.03 0.04 0.05 0.06 0.06 0.05 0.05 0.05 0.07 0.09 0.05 0.05 0.06 0.07 0.07 0.07 0.05 0.06 0.07 0.06 0.06 0.06 0.06 0.06 0.06 0.07 0.06 0.07 0.09 0.12 0.15 0.15 0.13 0.08 0.09 0.10 0.10 0.08 0.06
0.01 0.02 0.02 0.05 0.05 0.06 0.06 0.05 0.05 0.06 0.07 0.08 0.08 0.07 0.06 0.05 0.06 0.08 0.08 0.09 0.08 0.09 0.09 0.06 0.07 0.07 0.07 0.07 0.09 0.11 0.10 0.09 0.10 0.12 0.13 0.12 0.08 0.07 0.07 0.07 0.07 0.07 0.06
0.01 0.01 0.01 0.02 0.04 0.03 0.05 0.04 0.04 0.05 0.06 0.06 0.07 0.08 0.07 0.06 0.05 0.06 0.08 0.08 0.09 0.11 0.10 0.08 0.08 0.09 0.08 0.08 0.11 0.15 0.15 0.15 0.14 0.11 0.09 0.09 0.07 0.05 0.04 0.04 0.03 0.04 0.05
0.01 0.01 0.01 0.02 0.03 0.03 0.04 0.04 0.04 0.05 0.06 0.05 0.05 0.05 0.05 0.04 0.04 0.04 0.06 0.06 0.09 0.08 0.09 0.07 0.07 0.10 0.10 0.08 0.06 0.10 0.13 0.15 0.15 0.10 0.07 0.08 0.09 0.07 0.05 0.04 0.04 0.04 0.04
0.00 0.00 0.01 0.02 0.03 0.02 0.04 0.05 0.06 0.06 0.08 0.06 0.05 0.05 0.05 0.04 0.05 0.05 0.06 0.07 0.07 0.06 0.08 0.05 0.06 0.07 0.08 0.09 0.08 0.06 0.07 0.11 0.12 0.13 0.10 0.08 0.08 0.08 0.07 0.06 0.05 0.05 0.04
0.00 0.00 0.01 0.02 0.02 0.03 0.03 0.05 0.07 0.05 0.06 0.06 0.05 0.05 0.05 0.04 0.04 0.04 0.06 0.07 0.07 0.07 0.07 0.06 0.09 0.07 0.09 0.08 0.07 0.06 0.07 0.09 0.09 0.11 0.11 0.10 0.09 0.07 0.07 0.06 0.07 0.07 0.06
0.00 0.00 0.00 0.01 0.02 0.02 0.02 0.03 0.04 0.05 0.06 0.06 0.06 0.05 0.05 0.05 0.05 0.04 0.06 0.07 0.07 0.07 0.06 0.06 0.08 0.07 0.08 0.08 0.07 0.07 0.09 0.09 0.09 0.10 0.10 0.10 0.10 0.09 0.08 0.08 0.08 0.08 0.06
MSLP
1008.31 1008.13 1008.06 1008.16 1008.42 1008.82 1009.29 1009.77 1010.20 1010.54 1010.78 1010.96 1011.11 1011.30 1011.55 1011.87 1012.24 1012.63 1013.00 1013.32 1013.58 1013.77 1013.95 1014.12 1014.33 1014.58 1014.87 1015.17 1015.47 1015.72 1015.94 1016.11 1016.25 1016.38 1016.53 1016.70 1016.88 1017.08 1017.27 1017.46 1017.63 1017.79 1017.96
1008.37 1008.27 1008.28 1008.44 1008.75 1009.17 1009.64 1010.11 1010.52 1010.86 1011.13 1011.35 1011.57 1011.83 1012.14 1012.50 1012.89 1013.27 1013.61 1013.88 1014.09 1014.25 1014.40 1014.56 1014.75 1014.99 1015.26 1015.53 1015.79 1016.01 1016.20 1016.36 1016.51 1016.66 1016.84 1017.04 1017.26 1017.48 1017.68 1017.86 1018.01 1018.16 1018.30
1008.44 1008.42 1008.51 1008.74 1009.10 1009.54 1010.01 1010.47 1010.87 1011.21 1011.50 1011.76 1012.03 1012.34 1012.69 1013.07 1013.45 1013.79 1014.08 1014.31 1014.47 1014.61 1014.75 1014.91 1015.12 1015.36 1015.61 1015.86 1016.09 1016.27 1016.43 1016.56 1016.71 1016.89 1017.10 1017.35 1017.61 1017.86 1018.09 1018.27 1018.41 1018.54 1018.67
1008.47 1008.54 1008.72 1009.03 1009.44 1009.91 1010.39 1010.85 1011.25 1011.59 1011.90 1012.20 1012.51 1012.85 1013.22 1013.59 1013.93 1014.23 1014.45 1014.62 1014.76 1014.88 1015.03 1015.22 1015.45 1015.71 1015.97 1016.19 1016.37 1016.51 1016.62 1016.73 1016.87 1017.06 1017.31 1017.61 1017.92 1018.22 1018.47 1018.67 1018.82 1018.94 1019.06
1008.48 1008.63 1008.90 1009.29 1009.76 1010.27 1010.77 1011.23 1011.63 1011.99 1012.32 1012.65 1012.99 1013.36 1013.72 1014.07 1014.36 1014.59 1014.76 1014.88 1014.99 1015.12 1015.30 1015.53 1015.80 1016.08 1016.34 1016.54 1016.67 1016.75 1016.80 1016.86 1016.98 1017.19 1017.47 1017.81 1018.18 1018.53 1018.82 1019.05 1019.21 1019.33 1019.45
1008.46 1008.68 1009.03 1009.50 1010.03 1010.58 1011.10 1011.56 1011.98 1012.35 1012.71 1013.07 1013.45 1013.83 1014.20 1014.51 1014.76 1014.94 1015.05 1015.13 1015.23 1015.38 1015.59 1015.87 1016.18 1016.49 1016.74 1016.90 1016.98 1016.98 1016.97 1016.98 1017.08 1017.28 1017.59 1017.98 1018.40 1018.80 1019.13 1019.38 1019.56 1019.69 1019.81
1008.42 1008.70 1009.12 1009.65 1010.23 1010.80 1011.34 1011.82 1012.24 1012.63 1013.02 1013.42 1013.84 1014.25 1014.62 1014.93 1015.15 1015.28 1015.35 1015.42 1015.51 1015.68 1015.94 1016.26 1016.60 1016.92 1017.16 1017.28 1017.29 1017.22 1017.13 1017.09 1017.15 1017.36 1017.69 1018.12 1018.58 1019.02 1019.39 1019.67 1019.86 1019.99 1020.11
1008.40 1008.72 1009.18 1009.75 1010.35 1010.94 1011.48 1011.95 1012.38 1012.79 1013.22 1013.67 1014.13 1014.58 1014.98 1015.29 1015.51 1015.62 1015.68 1015.74 1015.84 1016.03 1016.32 1016.67 1017.04 1017.36 1017.57 1017.64 1017.58 1017.44 1017.29 1017.19 1017.23 1017.43 1017.78 1018.24 1018.74 1019.21 1019.61 1019.90 1020.09 1020.21 1020.32
1008.42 1008.75 1009.24 1009.82 1010.42 1010.99 1011.51 1011.97 1012.39 1012.82 1013.27 1013.77 1014.29 1014.80 1015.24 1015.59 1015.82 1015.94 1016.01 1016.07 1016.19 1016.40 1016.71 1017.07 1017.45 1017.75 1017.93 1017.95 1017.84 1017.63 1017.42 1017.29 1017.31 1017.51 1017.87 1018.36 1018.89 1019.38 1019.79 1020.07 1020.26 1020.36 1020.45
1008.51 1008.85 1009.33 1009.90 1010.47 1011.00 1011.47 1011.89 1012.30 1012.72 1013.20 1013.74 1014.32 1014.88 1015.38 1015.78 1016.05 1016.21 1016.30 1016.38 1016.52 1016.74 1017.05 1017.42 1017.78 1018.06 1018.21 1018.19 1018.02 1017.78 1017.54 1017.38 1017.39 1017.60 1017.98 1018.48 1019.02 1019.53 1019.93 1020.21 1020.38 1020.46 1020.53
1008.68 1009.02 1009.49 1010.02 1010.54 1011.01 1011.42 1011.78 1012.15 1012.55 1013.04 1013.61 1014.23 1014.85 1015.41 1015.86 1016.19 1016.39 1016.52 1016.63 1016.78 1017.01 1017.32 1017.68 1018.02 1018.27 1018.38 1018.34 1018.15 1017.88 1017.63 1017.48 1017.49 1017.70 1018.09 1018.60 1019.14 1019.65 1020.05 1020.31 1020.46 1020.52 1020.57
1008.92 1009.27 1009.72 1010.21 1010.67 1011.07 1011.40 1011.69 1012.00 1012.37 1012.84 1013.41 1014.05 1014.71 1015.32 1015.83 1016.21 1016.46 1016.63 1016.78 1016.95 1017.19 1017.50 1017.84 1018.15 1018.38 1018.47 1018.41 1018.22 1017.96 1017.72 1017.57 1017.59 1017.81 1018.20 1018.70 1019.23 1019.72 1020.11 1020.37 1020.50 1020.56 1020.59
1009.21 1009.57 1010.00 1010.45 1010.85 1011.18 1011.43 1011.65 1011.89 1012.21 1012.64 1013.19 1013.83 1014.50 1015.14 1015.69 1016.12 1016.43 1016.64 1016.83 1017.03 1017.28 1017.58 1017.90 1018.20 1018.42 1018.50 1018.44 1018.26 1018.03 1017.80 1017.68 1017.70 1017.91 1018.28 1018.75 1019.26 1019.73 1020.10 1020.36 1020.50 1020.56 1020.60
1009.50 1009.88 1010.30 1010.72 1011.07 1011.33 1011.52 1011.67 1011.85 1012.10 1012.48 1012.99 1013.60 1014.25 1014.89 1015.46 1015.93 1016.28 1016.55 1016.78 1017.01 1017.27 1017.57 1017.89 1018.19 1018.40 1018.49 1018.45 1018.31 1018.10 1017.91 1017.79 1017.81 1018.00 1018.32 1018.74 1019.20 1019.63 1019.99 1020.24 1020.40 1020.50 1020.57
1009.75 1010.14 1010.56 1010.95 1011.27 1011.49 1011.64 1011.74 1011.86 1012.06 1012.37 1012.82 1013.37 1013.98 1014.60 1015.16 1015.65 1016.04 1016.36 1016.63 1016.90 1017.19 1017.51 1017.83 1018.13 1018.35 1018.47 1018.46 1018.36 1018.20 1018.03 1017.92 1017.92 1018.05 1018.31 1018.65 1019.03 1019.41 1019.74 1020.00 1020.19 1020.34 1020.46
1009.92 1010.32 1010.73 1011.11 1011.41 1011.61 1011.74 1011.82 1011.91 1012.05 1012.30 1012.67 1013.15 1013.69 1014.26 1014.81 1015.30 1015.72 1016.08 1016.40 1016.71 1017.04 1017.38 1017.72 1018.03 1018.28 1018.43 1018.47 1018.42 1018.30 1018.16 1018.05 1018.01 1018.07 1018.23 1018.47 1018.75 1019.06 1019.34 1019.61 1019.83 1020.04 1020.24
1010.01 1010.40 1010.79 1011.15 1011.45 1011.66 1011.79 1011.87 1011.94 1012.06 1012.25 1012.54 1012.94 1013.40 1013.91 1014.42 1014.90 1015.34 1015.73 1016.10 1016.45 1016.81 1017.18 1017.54 1017.88 1018.16 1018.36 1018.46 1018.46 1018.39 1018.28 1018.17 1018.09 1018.06 1018.11 1018.22 1018.38 1018.59 1018.82 1019.06 1019.32 1019.58 1019.85
1010.03 1010.39 1010.75 1011.09 1011.39 1011.61 1011.77 1011.88 1011.96 1012.05 1012.20 1012.43 1012.73 1013.12 1013.55 1014.01 1014.47 1014.91 1015.33 1015.73 1016.12 1016.51 1016.91 1017.29 1017.65 1017.97 1018.21 1018.38 1018.45 1018.44 1018.37 1018.26 1018.14 1018.03 1017.96 1017.93 1017.96 1018.05 1018.20 1018.40 1018.66 1018.97 1019.30
1010.01 1010.32 1010.64 1010.96 1011.26 1011.51 1011.71 1011.85 1011.95 1012.05 1012.16 1012.33 1012.56 1012.85 1013.21 1013.61 1014.04 1014.47 1014.90 1015.32 1015.73 1016.14 1016.54 1016.94 1017.33 1017.68 1017.97 1018.20 1018.35 1018.42 1018.40 1018.31 1018.17 1017.99 1017.81 1017.65 1017.54 1017.50 1017.54 1017.68 1017.92 1018.23 1018.60
1009.98 1010.23 1010.51 1010.81 1011.11 1011.39 1011.62 1011.81 1011.94 1012.05 1012.15 1012.26 1012.42 1012.64 1012.92 1013.26 1013.64 1014.05 1014.47 1014.88 1015.30 1015.70 1016.11 1016.51 1016.90 1017.27 1017.62 1017.92 1018.15 1018.30 1018.35 1018.31 1018.17 1017.95 1017.69 1017.42 1017.17 1017.00 1016.92 1016.97 1017.14 1017.43 1017.81
1009.93 1010.14 1010.39 1010.67 1010.98 1011.28 1011.56 1011.79 1011.96 1012.08 1012.17 1012.25 1012.36 1012.51 1012.72 1013.00 1013.32 1013.69 1014.08 1014.47 1014.86 1015.24 1015.62 1016.00 1016.38 1016.77 1017.16 1017.52 1017.83 1018.07 1018.22 1018.24 1018.14 1017.91 1017.60 1017.24 1016.88 1016.58 1016.38 1016.32 1016.40 1016.63 1016.97
1009.84 1010.05 1010.29 1010.57 1010.88 1011.22 1011.53 1011.80 1012.01 1012.16 1012.25 1012.32 1012.38 1012.48 1012.63 1012.84 1013.11 1013.43 1013.77 1014.12 1014.46 1014.80 1015.13 1015.47 1015.82 1016.21 1016.61 1017.02 1017.41 1017.74 1017.98 1018.09 1018.05 1017.86 1017.53 1017.12 1016.68 1016.28 1015.96 1015.77 1015.75 1015.89 1016.17
1009.67 1009.90 1010.17 1010.47 1010.81 1011.17 1011.53 1011.84 1012.09 1012.27 1012.38 1012.44 1012.48 1012.54 1012.64 1012.80 1013.02 1013.28 1013.56 1013.86 1014.14 1014.41 1014.68 1014.96 1015.27 1015.63 1016.03 1016.47 1016.91 1017.32 1017.64 1017.84 1017.89 1017.75 1017.45 1017.03 1016.55 1016.07 1015.65 1015.36 1015.23 1015.26 1015.45
1009.35 1009.65 1009.97 1010.32 1010.71 1011.11 1011.51 1011.87 1012.17 1012.38 1012.52 1012.59 1012.63 1012.67 1012.75 1012.86 1013.03 1013.24 1013.47 1013.70 1013.92 1014.12 1014.32 1014.53 1014.78 1015.08 1015.46 1015.89 1016.36 1016.81 1017.21 1017.49 1017.61 1017.55 1017.31 1016.92 1016.44 1015.92 1015.45 1015.07 1014.84 1014.77 1014.86
1008.84 1009.25 1009.65 1010.07 1010.51 1010.97 1011.41 1011.83 1012.17 1012.44 1012.61 1012.72 1012.78 1012.83 1012.89 1012.98 1013.11 1013.27 1013.45 1013.63 1013.78 1013.92 1014.05 1014.19 1014.36 1014.61 1014.93 1015.33 1015.78 1016.25 1016.68 1017.02 1017.21 1017.23 1017.06 1016.73 1016.29 1015.78 1015.29 1014.86 1014.56 1014.41 1014.40
1008.15 1008.67 1009.17 1009.67 1010.18 1010.69 1011.19 1011.66 1012.06 1012.39 1012.62 1012.78 1012.87 1012.94 1013.01 1013.09 1013.20 1013.34 1013.48 1013.61 1013.72 1013.80 1013.87 1013.94 1014.05 1014.21 1014.46 1014.80 1015.20 1015.64 1016.06 1016.42 1016.67 1016.75 1016.67 1016.43 1016.05 1015.61 1015.14 1014.71 1014.37 1014.16 1014.09
Thickness
5793 5793 5792 5792 5792 5792 5793 5794 5794 5793 5793 5792 5792 5792 5791 5791 5790 5788 5787 5786 5785 5784 5782 5780 5779 5778 5778 5777 5777 5776 5775 5774 5773 5772 5771 5769 5768 5766 5765 5763 5763 5760 5758
5796 5793 5791 5791 5791 5791 5793 5794 5793 5792 5790 5790 5790 5790 5790 5789 5788 5786 5785 5784 5783 5782 5781 5779 5778 5777 5776 5776 5775 5774 5773 5772 5771 5771 5769 5768 5766 5764 5763 5762 5761 5759 5757
5797 5793 5790 5789 5789 5789 5790 5791 5791 5789 5788 5788 5789 5789 5788 5787 5786 5784 5783 5783 5782 5781 5779 5778 5777 5776 5775 5774 5774 5773 5772 5771 5770 5770 5769 5767 5765 5763 5762 5761 5759 5757 5756
5799 5794 5790 5788 5787 5787 5787 5787 5787 5787 5786 5786 5787 5787 5786 5785 5784 5783 5782 5781 5780 5779 5778 5777 5776 5775 5774 5773 5773 5772 5771 5770 5769 5769 5768 5767 5765 5762 5761 5759 5758 5756 5755
5799 5793 5788 5787 5787 5786 5785 5785 5785 5784 5784 5784 5784 5784 5784 5783 5782 5781 5780 5780 5779 5778 5777 5776 5775 5774 5773 5772 5771 5770 5769 5769 5768 5768 5767 5765 5763 5761 5759 5758 5756 5755 5754
5799 5794 5789 5788 5787 5785 5784 5783 5783 5783 5782 5782 5782 5781 5781 5781 5780 5780 5779 5778 5777 5777 5776 5775 5774 5773 5772 5771 5770 5769 5768 5767 5767 5767 5766 5764 5761 5759 5758 5757 5755 5754 5752
5800 5796 5790 5788 5787 5785 5784 5783 5782 5781 5781 5781 5780 5780 5779 5779 5778 5778 5778 5777 5777 5777 5776 5774 5773 5772 5771 5769 5768 5768 5767 5767 5766 5767 5765 5762 5759 5757 5756 5756 5754 5753 5751
5802 5796 5790 5788 5786 5785 5784 5783 5782 5781 5780 5780 5779 5778 5778 5777 5777 5776 5776 5776 5776 5776 5775 5773 5771 5770 5769 5768 5767 5767 5766 5765 5767 5766 5764 5761 5759 5757 5755 5754 5753 5751 5750
5804 5799 5793 5790 5787 5785 5784 5783 5782 5781 5780 5779 5779 5778 5777 5776 5775 5775 5774 5774 5774 5774 5773 5771 5770 5769 5768 5767 5767 5766 5766 5765 5765 5765 5763 5760 5758 5756 5754 5753 5751 5749 5748
5804 5800 5796 5794 5791 5788 5785 5783 5782 5781 5780 5779 5779 5778 5777 5776 5775 5774 5773 5773 5773 5772 5771 5770 5769 5769 5768 5767 5766 5766 5765 5765 5765 5764 5762 5759 5757 5755 5754 5752 5750 5749 5748
5800 5800 5799 5797 5794 5792 5789 5786 5784 5782 5781 5780 5779 5778 5777 5778 5776 5775 5774 5773 5772 5772 5771 5770 5770 5769 5768 5767 5766 5765 5764 5764 5765 5763 5761 5758 5756 5755 5754 5752 5750 5749 5747
5796 5798 5799 5798 5796 5795 5793 5788 5786 5785 5783 5782 5781 5780 5779 5779 5778 5777 5775 5774 5772 5772 5771 5770 5769 5769 5767 5767 5766 5766 5765 5765 5765 5762 5759 5757 5755 5754 5753 5751 5750 5749 5747
5799 5799 5799 5798 5796 5794 5793 5791 5789 5787 5785 5783 5782 5782 5781 5780 5779 5777 5775 5774 5772 5772 5771 5770 5769 5769 5769 5768 5767 5767 5766 5765 5764 5762 5759 5757 5755 5754 5753 5751 5750 5749 5747
5799 5798 5798 5797 5795 5793 5793 5792 5791 5789 5787 5786 5784 5783 5782 5781 5780 5779 5777 5776 5774 5774 5773 5772 5770 5770 5770 5769 5768 5767 5766 5764 5763 5760 5758 5757 5755 5754 5753 5752 5750 5749 5747
5799 5798 5797 5796 5793 5792 5791 5791 5791 5790 5788 5787 5785 5784 5783 5781 5780 5779 5778 5777 5776 5776 5774 5772 5771 5770 5769 5769 5768 5767 5765 5764 5763 5760 5758 5756 5755 5754 5753 5752 5751 5749 5748
5799 5798 5798 5796 5794 5792 5791 5790 5791 5790 5789 5787 5786 5784 5783 5782 5780 5779 5778 5777 5777 5776 5775 5773 5772 5770 5769 5768 5767 5766 5765 5764 5762 5760 5757 5756 5755 5754 5753 5752 5751 5750 5748
5801 5801 5799 5797 5795 5793 5792 5792 5792 5791 5790 5788 5785 5784 5783 5782 5781 5779 5778 5777 5776 5775 5774 5773 5772 5770 5769 5767 5766 5765 5763 5763 5761 5760 5758 5756 5755 5754 5753 5752 5751 5749 5748
5804 5801 5801 5802 5797 5794 5792 5792 5792 5791 5790 5788 5786 5785 5783 5782 5781 5780 5778 5777 5776 5775 5774 5772 5771 5768 5767 5765 5764 5763 5763 5762 5762 5760 5759 5758 5756 5755 5753 5752 5750 5749 5747
5806 5803 5801 5801 5798 5796 5794 5793 5792 5790 5789 5788 5787 5785 5783 5782 5782 5781 5778 5777 5776 5775 5774 5773 5770 5768 5764 5763 5763 5762 5762 5762 5761 5761 5760 5758 5756 5755 5753 5751 5750 5748 5747
5809 5805 5803 5800 5798 5797 5795 5793 5791 5790 5789 5789 5787 5785 5784 5783 5782 5781 5779 5777 5776 5774 5772 5770 5768 5767 5765 5763 5763 5761 5761 5762 5761 5760 5759 5758 5757 5755 5753 5750 5748 5746 5745
5810 5805 5803 5800 5798 5797 5793 5790 5787 5786 5787 5787 5786 5785 5783 5782 5781 5780 5778 5776 5774 5772 5770 5770 5767 5765 5764 5764 5758 5755 5758 5760 5759 5759 5758 5757 5756 5755 5753 5750 5748 5746 5744
5811 5807 5804 5801 5799 5798 5795 5793 5791 5789 5788 5788 5787 5784 5783 5782 5780 5780 5777 5775 5773 5770 5768 5768 5766 5762 5762 5763 5757 5749 5745 5747 5752 5757 5756 5754 5753 5753 5752 5750 5748 5745 5744
5812 5810 5808 5804 5801 5799 5798 5796 5794 5790 5788 5786 5784 5782 5782 5781 5780 5778 5777 5775 5773 5771 5767 5766 5765 5761 5757 5759 5760 5752 5743 5737 5743 5749 5751 5751 5750 5750 5750 5749 5748 5745 5743
5818 5815 5812 5807 5803 5801 5799 5796 5791 5786 5782 5783 5783 5783 5782 5782 5780 5778 5776 5774 5772 5770 5767 5766 5765 5763 5759 5755 5757 5757 5755 5750 5740 5737 5743 5748 5749 5748 5748 5748 5747 5744 5742
5824 5819 5814 5809 5805 5802 5800 5797 5792 5788 5786 5786 5786 5783 5782 5781 5780 5778 5776 5773 5771 5769 5767 5766 5764 5762 5760 5756 5754 5754 5753 5751 5749 5740 5735 5739 5743 5746 5746 5746 5745 5743 5740
5827 5822 5817 5810 5805 5803 5800 5798 5793 5789 5787 5785 5784 5781 5780 5780 5779 5777 5776 5773 5771 5769 5767 5765 5763 5761 5758 5756 5755 5754 5750 5747 5745 5742 5737 5736 5737 5740 5743 5744 5743 5741 5739